sat.trackr.live / text

‹ back to catalog

STARLINK-31101

NORAD 58737 · 2024-005K

PAYLOAD ACTIVE UNKNOWN

§ Identity

Operator
Country
US
Launch date
2024-01-07
Launch site
AFETR
Launch vehicle
Mass (kg)
RCS (m²)

Purposes: comms

External: N2YO · Heavens-Above · Gunter

§ Orbital elements

Epoch: 2026-05-25T01:20:47.078880Z

Period
94.27 min
Inclination
43.0030°
Eccentricity
0.0001772
Mean motion
15.27578264 rev/d
Perigee alt
481.8 km
Apogee alt
484.3 km
Semi-major
6,861.2 km
B*
5.5152e-5
RAAN
148.4124°
Arg perigee
296.3117°
Mean anomaly
63.7552°
Rev number
13,211

§ Raw data

STARLINK-311011 58737U 24005K   26145.05610045  .00001256  00000+0  55152-4 0  99952 58737  43.0030 148.4124 0001772 296.3117  63.7552 15.27578264132115

JSON: /api/v1/satellites/58737 · /tle

For live sub-satellite position, see the globe view (requires WebGL).

§ Visibility from observer

Set your observer location to see the next 7 days of passes ≥ 10°. The values pass through the URL so the page stays shareable.

No JS? Fill the form by hand. The geolocation button needs JavaScript.